Location: West Sayville
(40.7279°N, 73.0976°W)
Time: 09:26:47
(UTC+00:00)

Cosmos 2369 - Pass Details

Date: 29 October 2020
Orbit: 840 x 855 km, 71.0° (Epoch: 23 November)

Event Time Altitude Azimuth Distance (km) Brightness Sun altitude
Rises 23:30:44 0° 207° (SSW) 3,409 7.2 -19.3°
Reaches altitude 10° 23:33:11 10° 208° (SSW) 2,476 6.5 -19.7°
Maximum altitude 23:38:52 75° 294° (WNW) 883 3.8 -20.8°
Drops below altitude 10° 23:44:35 10° 20° (NNE) 2,483 5.9 -21.9°
Enters shadow 23:45:08 - 21° (NNE) 2,693 6.1 -22.0°
